Terminal Aerodrome Forecast
Issued by NWS Quad Cities IA IL

Home | Current Version | Previous Version | Text Only | Print | Product List | Glossary On
Versions: 1 2 3 4 5 6 7 8 9 10 11 12 13 14 15 16 17 18 19 20 21 22 23 24 25 26 27 28 29 30 31 32 33 34 35 36 37 38 39 40 41 42 43 44 45 46 47
000
FTUS43 KDVN 270606 AAA
TAFMLI
TAF AMD
KMLI 270606Z 2706/2806 26006KT 6SM BR OVC010
     FM270800 32005KT 2SM -DZ BR OVC008
     FM271500 04006KT 4SM -SHRA BR OVC008
     FM272000 01006KT P6SM OVC012=

USA.gov is the U.S. government's official web portal to all federal, state and local government web resources and services.